Location: Hamilton
(37.7830°S, 175.2830°E)
Time: 13:50:59
(UTC+13:00)

Daily predictions for brighter satellites

Satellite Brightness Start Highest point End
(mag) Time Altitude Azimuth Time Altitude Azimuth Time Altitude Azimuth
Cosmos 1869 4.0 21:00:54 10° NNE 21:04:32 34° E 21:08:14 10° SSE
Cosmos 1655 Rocket 4.2 20:58:58 10° N 21:05:19 88° W 21:11:42 10° S
Cosmos 1271 Rocket 3.0 21:01:28 10° S 21:05:29 56° E 21:09:27 10° NNE
HJ-1C 3.6 21:02:05 10° SSE 21:05:29 54° E 21:08:48 10° N
Cosmos 2360 Rocket 4.0 21:04:58 10° ENE 21:06:52 12° E 21:08:45 10° ESE
Cosmos 1666 Rocket 3.9 21:04:22 10° S 21:08:48 50° E 21:13:08 10° NNE
Tiangong 2 2.2 21:06:41 10° W 21:09:39 35° NNW 21:12:36 10° NE
Cosmos 1980 Rocket 2.6 21:04:15 10° NNW 21:09:56 71° WSW 21:15:41 10° SSE
Meteor 1-27 4.4 21:04:38 10° N 21:10:27 87° W 21:16:24 10° S
Lacrosse 5 2.2 21:11:55 10° SW 21:17:02 59° SE 21:22:00 10° NE
Cosmos 2228 Rocket 4.3 21:14:01 10° NE 21:17:30 23° E 21:21:01 10° SE
Cosmos 1805 Rocket 4.0 21:13:49 10° SSW 21:18:12 67° W 21:22:31 10° N
MOS 1 4.3 21:14:09 10° SSE 21:19:57 84° ENE 21:25:41 10° NNW
Cosmos 2322 Rocket 2.7 21:14:52 10° N 21:20:01 38° ENE 21:25:15 10° SE
DELTA 2 R/B(2) 3.3 21:17:01 10° WNW 21:20:06 82° N 21:21:46 10° ESE
Cosmos 1741 Rocket 4.3 21:16:30 10° NNW 21:21:50 80° WSW 21:27:15 10° SSE
ADEOS Rocket 3.9 21:19:02 10° ENE 21:23:42 27° ESE 21:28:18 10° S
CZ-2D R/B 3.8 21:24:58 10° S 21:28:55 65° WSW 21:32:48 10° NNW
USA 186 1.8 21:26:45 10° SSE 21:29:31 41° E 21:32:03 10° N
Cosmos 1515 Rocket 4.1 21:25:36 10° NNE 21:29:47 40° E 21:34:02 10° SSE
Cosmos 1939 Rocket 3.0 21:30:17 10° SSE 21:34:31 89° E 21:38:42 10° NNW
Envisat 4.4 21:29:53 10° S 21:34:44 43° WSW 21:39:32 10° NW
USA 32 4.3 21:32:34 10° N 21:37:48 73° W 21:43:07 10° S
NOAA 11 4.2 21:32:32 10° SSE 21:38:03 62° E 21:43:32 10° N
ARGOS 4.4 21:35:25 10° SE 21:39:29 21° E 21:42:01 16° NE
Meteor 2-10 Rocket 4.2 21:34:39 10° NNW 21:39:40 57° WSW 21:44:55 10° S
Cosmos 2227 4.2 21:35:19 10° SSW 21:41:03 76° ESE 21:46:04 13° NNE
Resurs 01 Rocket 2.6 21:39:21 10° SE 21:43:11 27° E 21:45:44 17° NE
Cosmos 292 Rocket 4.2 21:39:06 10° SSW 21:43:52 63° WNW 21:48:36 10° N
Cosmos 2263 Rocket 2.7 21:39:43 10° S 21:45:10 46° ESE 21:49:11 18° NE
Aureole 3 Rocket 2.8 21:45:17 10° S 21:48:52 89° ENE 21:53:32 10° N
CZ-2C R/B 2.9 21:48:35 16° NE 21:52:53 54° ESE 21:58:09 10° S
Cosmos 1151 Rocket 3.0 21:50:24 10° N 21:54:42 86° W 21:59:05 10° S
Resurs 1-3 3.9 21:52:04 10° SSE 21:56:22 46° E 21:59:43 16° NNE
Cosmos 2208 Rocket 4.1 21:59:47 10° SSW 22:05:03 81° WNW 22:09:01 18° NNE
SPOT 3 Rocket 4.5 22:00:51 10° S 22:05:55 51° WSW 22:10:55 10° NW
Cosmos 2315 Rocket 4.0 21:59:58 10° S 22:06:23 88° W 22:12:14 12° N
CZ-4C R/B 4.4 22:06:45 10° S 22:09:02 12° SSE 22:11:10 10° SE
H-2A R/B 3.3 22:08:13 10° NW 22:11:37 30° NNE 22:23:34 10° E
Cosmos 1356 4.3 22:12:25 31° E 22:12:25 31° E 22:15:30 10° SSE
Cosmos 540 Rocket 4.1 22:12:09 10° S 22:17:07 42° ESE 22:19:09 29° ENE
ATLAS 3B R/B 3.9 22:18:33 21° ENE 22:18:33 21° ENE 22:23:39 10° ESE
USA 238 DEB 4.1 22:15:42 10° N 22:22:34 43° ENE 22:29:22 10° SE
USA 238 4.1 22:15:49 10° N 22:22:40 43° ENE 22:29:27 10° SE
BREEZE-M DEB (TANK) 3.6 22:23:55 10° W 22:27:51 32° SSW 22:29:45 12° SE
Cosmos 2237 4.4 22:25:19 23° N 22:28:40 51° ENE 22:34:12 10° SSE
Cosmos 1862 3.6 22:25:15 10° SSW 22:29:18 67° W 22:31:06 31° NNW
Cosmos 1763 Rocket 3.9 22:26:20 10° SSW 22:31:30 58° WNW 22:34:28 24° N
Atlas Centaur 2 3.3 22:24:10 10° WNW 22:32:20 51° N 22:36:39 28° ENE
Cosmos 1869 Rocket 3.8 22:31:37 10° S 22:35:54 48° E 22:36:30 45° ENE
ERBS 4.1 22:33:35 10° SSW 22:36:29 23° SE 22:37:00 22° SE
Nimbus 7 Rocket 4.4 22:38:53 36° NE 22:41:21 68° ESE 22:47:20 10° S
Cosmos 1486 Rocket 4.0 22:36:54 12° NNW 22:41:46 83° WSW 22:47:05 10° SSE
H-2A R/B 1.8 22:38:21 10° SSE 22:43:27 80° ENE 22:45:39 34° N
SL-08 R/B 4.4 22:39:25 21° N 22:43:39 90° E 22:49:54 10° S
SL-16 R/B 3.7 22:39:28 10° NW 22:44:42 37° WSW 22:50:00 10° S
ERS-1 Rocket 4.2 22:40:34 10° SE 22:44:02 25° E 22:44:02 25° E
Mayak 0.3 22:46:27 23° ESE 22:46:27 23° ESE 22:49:40 10° SSE
Cosmos 2360 Rocket 2.2 22:44:20 10° NNW 22:50:01 82° WSW 22:55:47 10° SSE
Cosmos 1707 Rocket 3.4 22:55:32 68° ENE 22:55:40 69° E 23:00:03 10° SSE
Meteor 1-26 Rocket 4.2 22:55:59 43° N 22:57:56 73° E 23:03:43 10° SSE
Lacrosse 5 3.7 22:55:51 10° WSW 22:59:36 21° WNW 23:01:12 18° NW
Cosmos 1933 4.1 22:58:17 34° NW 22:59:42 51° W 23:03:47 10° S
NOSS 2-1 (E) 4.4 22:52:18 10° SSW 22:59:53 74° SE 23:01:31 50° NE
Cosmos 1242 Rocket 3.9 22:56:41 10° SSW 23:00:07 34° W 23:00:53 30° WNW
Helios 1B rocket 2.3 23:00:46 77° E 23:00:47 77° ESE 23:04:58 10° S
Cosmos 1844 Rocket 3.3 22:56:15 10° S 23:01:37 41° ESE 23:02:38 38° E
Cosmos 841 Rocket 4.2 22:57:13 10° SSW 23:02:20 48° WNW 23:04:13 33° NNW
COSMOS 2428 3.1 23:03:03 44° E 23:03:03 44° E 23:08:17 10° SE
Cosmos 2322 Rocket 4.1 22:59:13 10° WNW 23:04:06 29° WSW 23:09:03 10° S
NOSS 3-2 (C) 4.4 23:03:17 40° NE 23:05:00 45° ENE 23:12:20 10° SE
Cosmos 1745 Rocket 4.1 23:05:15 29° NNW 23:08:43 76° W 23:15:08 10° S
Cosmos 968 Rocket 3.4 23:08:48 65° ENE 23:09:00 65° ENE 23:14:13 10° SSE
ADEOS Rocket 4.0 23:05:50 19° NNW 23:09:06 35° W 23:14:08 10° SSW
SPOT 1/Viking Rocket 4.4 23:05:25 10° SSE 23:09:30 35° ESE 23:09:30 35° ESE
Cosmos 1386 Rocket 4.4 23:09:16 38° NNW 23:11:48 83° W 23:17:59 10° S
Cosmos 1709 Rocket 4.0 23:15:11 55° NE 23:16:14 63° E 23:22:27 10° SSE
Terra 3.7 23:14:56 10° SE 23:16:50 18° ESE 23:16:50 18° ESE
Cosmos 1633 4.1 23:16:04 10° SSW 23:19:15 30° W 23:19:15 30° W
Resurs 01 Rocket 3.7 23:15:53 10° SSW 23:19:32 25° WSW 23:23:07 10° WNW
ARGOS 4.1 23:14:45 10° S 23:19:54 45° WSW 23:23:31 18° NW
Cosmos 2322 3.9 23:18:12 28° NW 23:21:13 69° WSW 23:26:56 10° SSE
Spot 2 Rocket 4.4 23:17:34 10° S 23:22:28 46° WSW 23:25:12 24° NW
MetOp-B 4.2 23:19:11 10° S 23:24:36 74° WSW 23:25:59 51° NW
Meteor 1-25 Rocket 4.2 23:19:06 10° S 23:25:02 88° WNW 23:25:57 66° N
Cosmos 1606 3.5 23:25:39 52° SW 23:25:39 52° SW 23:29:07 10° S
CENTAUR R/B 3.7 23:28:52 34° E 23:28:52 34° E 23:34:08 10° SE
Cosmos 2263 Rocket 4.0 23:24:25 10° SW 23:28:43 22° W 23:30:54 18° NW
Timation 1 Rocket 4.5 23:24:51 10° SSW 23:30:50 63° WNW 23:31:47 55° NNW
Meteor 2-6 Rocket 4.5 23:33:41 51° ESE 23:33:41 51° ESE 23:38:20 10° SSE
Cosmos 2333 Rocket 2.3 23:35:00 63° E 23:35:00 63° E 23:40:19 10° SSE
Cosmos 2219 Rocket 2.1 23:36:23 71° E 23:36:23 71° E 23:41:50 10° SSE
Cosmos 2278 Rocket 3.7 23:33:20 10° S 23:37:55 24° ESE 23:38:32 24° ESE
IRAS Rocket 4.5 23:32:53 10° S 23:38:30 67° WSW 23:39:48 51° NW
Cosmos 2181 Rocket 4.0 23:33:18 10° S 23:39:29 61° E 23:39:48 60° E
Meteor 2-21 4.4 23:43:30 64° E 23:43:30 64° E 23:49:28 10° SSE
SeaSat 1 2.5 23:39:28 10° SSE 23:44:00 73° SSE 23:44:00 73° SSE
Cosmos 2237 Rocket 3.4 23:51:01 29° ESE 23:51:01 29° ESE 23:54:15 10° SE
Cosmos 1340 Rocket 4.3 23:50:56 33° S 23:50:56 33° S 23:53:17 10° S
Cosmos 1818 4.4 23:47:56 25° WNW 23:50:41 47° SW 23:55:54 10° SSE
